DW4127 Weather Reports


Display with metric or nautical units.
time (UTC)temp
F
wind
direction
speed
MPH
gust
MPH
rain 1hr
in
rain 24hr
in
rain mn
in
humidity
%
barometer
mb
20260901224535 97 90 4.0 9.0 0.00 0.00 0.00 44 1012.5
20260901223535 97 90 5.0 10.0 0.00 0.00 0.00 45 1012.6
20260901222535 97 90 5.0 10.0 0.00 0.00 0.00 44 1012.5
20260901221555 97 68 5.0 10.0 0.00 0.00 0.00 43 1012.5
20260901220535 98 68 3.0 7.0 0.00 0.00 0.00 43 1012.5
20260901215535 98 90 5.0 12.0 0.00 0.00 0.00 43 1012.6
20260901214535 99 90 4.0 7.0 0.00 0.00 0.00 41 1012.7
20260901213535 100 90 2.0 5.0 0.00 0.00 0.00 41 1012.8
20260901212535 98 68 2.0 4.0 0.00 0.00 0.00 42 1012.9
20260901211535 100 90 1.0 8.0 0.00 0.00 0.00 42 1013.0
20260901210555 100 68 2.0 8.0 0.00 0.00 0.00 41 1013.1
20260901205535 100 90 1.0 4.0 0.00 0.00 0.00 41 1013.1
20260901204535 99 90 3.0 9.0 0.00 0.00 0.00 41 1013.2
20260901203535 102 68 2.0 8.0 0.00 0.00 0.00 40 1013.3
20260901202535 102 90 2.0 7.0 0.00 0.00 0.00 42 1013.5
20260901201535 102 90 1.0 5.0 0.00 0.00 0.00 42 1013.7
20260901200535 100 68 2.0 7.0 0.00 0.00 0.00 41 1013.7
20260901195535 100 68 4.0 9.0 0.00 0.00 0.00 42 1013.9
20260901194535 100 90 3.0 8.0 0.00 0.00 0.00 42 1013.9
20260901193535 101 90 2.0 5.0 0.00 0.00 0.00 43 1014.1
20260901192535 100 68 1.0 4.0 0.00 0.00 0.00 43 1014.2
20260901191535 99 90 5.0 11.0 0.00 0.00 0.00 42 1014.4
20260901190535 99 68 5.0 11.0 0.00 0.00 0.00 41 1014.5
20260901185535 98 90 3.0 7.0 0.00 0.00 0.00 43 1014.6
20260901184535 100 90 4.0 10.0 0.00 0.00 0.00 43 1014.8
20260901183535 97 113 5.0 11.0 0.00 0.00 0.00 45 1015.0
20260901182535 98 113 5.0 12.0 0.00 0.00 0.00 44 1015.2
20260901181535 96 113 3.0 6.0 0.00 0.00 0.00 46 1015.3
20260901180535 98 90 4.0 10.0 0.00 0.00 0.00 46 1015.5
20260901175535 96 90 2.0 8.0 0.00 0.00 0.00 47 1015.7
20260901174535 96 68 1.0 4.0 0.00 0.00 0.00 49 1015.9
20260901173535 94 90 3.0 7.0 0.00 0.00 0.00 51 1016.1
20260901172535 97 90 2.0 6.0 0.00 0.00 0.00 48 1016.2
20260901171535 96 90 1.0 2.0 0.00 0.00 0.00 51 1016.3
20260901170535 94 135 1.0 3.0 0.00 0.00 0.00 51 1016.3
20260901165535 94 158 1.0 2.0 0.00 0.00 0.00 52 1016.5
20260901164535 94 135 3.0 6.0 0.00 0.00 0.00 53 1016.6
20260901163535 94 90 2.0 4.0 0.00 0.00 0.00 53 1016.6
20260901162535 93 90 3.0 8.0 0.00 0.00 0.00 53 1016.7
20260901161535 94 90 2.0 8.0 0.00 0.00 0.00 54 1016.7
20260901160535 92 135 1.0 6.0 0.00 0.00 0.00 56 1016.6
20260901155535 92 135 3.0 7.0 0.00 0.00 0.00 55 1016.5
20260901154535 91 135 3.0 7.0 0.00 0.00 0.00 56 1016.6
20260901153535 91 158 3.0 6.0 0.00 0.00 0.00 57 1016.5
20260901152535 91 113 3.0 8.0 0.00 0.00 0.00 58 1016.4
20260901151535 90 158 1.0 7.0 0.00 0.00 0.00 59 1016.3
20260901150555 90 158 3.0 7.0 0.00 0.00 0.00 61 1016.5
20260901145555 89 135 3.0 6.0 0.00 0.00 0.00 62 1016.7
20260901144535 89 180 2.0 6.0 0.00 0.00 0.00 62 1016.8
20260901143535 88 158 2.0 6.0 0.00 0.00 0.00 63 1016.7
20260901142535 87 135 1.0 4.0 0.00 0.00 0.00 64 1016.7
20260901141535 87 135 2.0 7.0 0.00 0.00 0.00 66 1016.8
20260901140535 86 135 3.0 7.0 0.00 0.00 0.00 66 1016.7
20260901135555 86 113 2.0 6.0 0.00 0.00 0.00 66 1016.8
20260901134535 85 158 1.0 2.0 0.00 0.00 0.00 67 1016.7
20260901133535 85 90 1.0 4.0 0.00 0.00 0.00 68 1016.7
20260901132537 84 113 2.0 4.0 0.00 0.00 0.00 68 1016.8
20260901131537 84 113 2.0 7.0 0.00 0.00 0.00 69 1016.7
20260901130555 83 113 2.0 4.0 0.00 0.00 0.00 69 1016.6
20260901125537 82 113 3.0 6.0 0.00 0.00 0.00 70 1016.5
20260901124557 82 113 1.0 2.0 0.00 0.00 0.00 71 1016.4
20260901123536 81 0.0 2.0 0.00 0.00 0.00 72 1016.2
20260901122537 80 0.0 2.0 0.00 0.00 0.00 72 1016.0
20260901121536 80 0.0 2.0 0.00 0.00 0.00 73 1015.9
20260901120536 79 0.0 0.0 0.00 0.00 0.00 73 1015.7
20260901115536 80 0.0 0.0 0.00 0.00 0.00 71 1015.6
20260901114537 80 0.0 1.0 0.00 0.00 0.00 71 1015.6
20260901113536 80 0.0 0.0 0.00 0.00 0.00 71 1015.5
20260901112557 81 0.0 1.0 0.00 0.00 0.00 70 1015.5
20260901111537 80 0.0 2.0 0.00 0.00 0.00 70 1015.4
20260901110536 80 0.0 1.0 0.00 0.00 0.00 70 1015.4
20260901105536 81 0.0 0.0 0.00 0.00 0.00 69 1015.2
20260901104536 81 0.0 0.0 0.00 0.00 0.00 68 1015.3
20260901103537 81 0.0 2.0 0.00 0.00 0.00 67 1015.3
20260901102536 82 113 1.0 2.0 0.00 0.00 0.00 67 1015.4
20260901101536 81 90 1.0 3.0 0.00 0.00 0.00 67 1015.4
20260901100536 82 90 1.0 3.0 0.00 0.00 0.00 66 1015.5
20260901095536 82 0.0 2.0 0.00 0.00 0.00 65 1015.5
20260901094617 82 113 1.0 4.0 0.00 0.00 0.00 65 1015.5
20260901093537 83 0.0 2.0 0.00 0.00 0.00 64 1015.5
20260901092537 83 113 1.0 2.0 0.00 0.00 0.00 64 1015.6
20260901091536 83 0.0 2.0 0.00 0.00 0.00 64 1015.6
20260901090536 83 0.0 2.0 0.00 0.00 0.00 63 1015.4
20260901085536 84 90 1.0 3.0 0.00 0.00 0.00 62 1015.3
20260901084536 84 68 3.0 6.0 0.00 0.00 0.00 61 1015.2
20260901083536 84 90 2.0 5.0 0.00 0.00 0.00 62 1015.2
20260901082536 84 90 1.0 3.0 0.00 0.00 0.00 61 1015.1
20260901081557 84 90 1.0 2.0 0.00 0.00 0.00 60 1015.2
20260901080536 84 113 1.0 2.0 0.00 0.00 0.00 60 1015.1
20260901075556 85 113 3.0 6.0 0.00 0.00 0.00 59 1015.3
20260901074537 85 90 1.0 6.0 0.00 0.00 0.00 58 1015.2
20260901073536 85 90 2.0 4.0 0.00 0.00 0.00 58 1015.2
20260901072537 86 90 1.0 3.0 0.00 0.00 0.00 57 1015.1
20260901071537 86 90 1.0 4.0 0.00 0.00 0.00 57 1015.1
20260901070536 86 90 2.0 4.0 0.00 0.00 0.00 56 1015.0
20260901065536 86 90 2.0 7.0 0.00 0.00 0.00 56 1015.1
20260901064536 86 90 2.0 4.0 0.00 0.00 0.00 56 1015.0
20260901063536 86 90 2.0 5.0 0.00 0.00 0.00 56 1014.9
20260901062536 87 90 2.0 7.0 0.00 0.00 0.00 55 1014.9
20260901061536 87 90 2.0 5.0 0.00 0.00 0.00 55 1014.8
20260901060536 87 90 3.0 7.0 0.00 0.00 0.00 54 1014.7
20260901055536 87 90 3.0 7.0 0.00 0.00 0.00 54 1014.6
20260901054536 87 90 3.0 7.0 0.00 0.00 0.00 54 1014.4
20260901053536 87 90 2.0 9.0 0.00 0.00 0.00 54 1014.4
20260901052536 87 90 3.0 7.0 0.00 0.00 0.00 53 1014.4
20260901051536 88 90 3.0 5.0 0.00 0.00 0.00 53 1014.3
20260901050536 88 90 2.0 6.0 0.00 0.00 0.00 53 1014.3
20260901045556 88 90 2.0 5.0 0.00 0.00 0.00 53 1014.1
20260901044616 88 68 1.0 3.0 0.00 0.00 0.00 52 1014.0
20260901043555 88 68 1.0 3.0 0.00 0.00 0.00 51 1014.1
20260901042535 88 90 3.0 8.0 0.00 0.00 0.00 51 1014.0
20260901041535 87 0.0 0.0 0.00 0.00 0.00 52 1013.9
20260901040536 88 0.0 1.0 0.00 0.00 0.00 50 1013.9
20260901035535 88 0.0 0.0 0.00 0.00 0.00 49 1013.9
20260901034535 89 0.0 2.0 0.00 0.00 0.00 47 1013.8
20260901033536 89 90 1.0 3.0 0.00 0.00 0.00 47 1013.8
20260901032536 89 0.0 2.0 0.00 0.00 0.00 47 1013.8
20260901031535 89 0.0 0.0 0.00 0.00 0.00 47 1013.7
20260901030536 90 0.0 0.0 0.00 0.00 0.00 48 1013.7
20260901025535 91 0.0 0.0 0.00 0.00 0.00 45 1013.5
20260901024535 91 0.0 0.0 0.00 0.00 0.00 45 1013.3
20260901023535 92 90 1.0 3.0 0.00 0.00 0.00 44 1013.2
20260901022536 92 90 1.0 2.0 0.00 0.00 0.00 43 1013.1
20260901021535 93 90 1.0 3.0 0.00 0.00 0.00 42 1013.0
20260901020535 93 113 1.0 4.0 0.00 0.00 0.00 42 1012.9
20260901015535 93 90 2.0 7.0 0.00 0.00 0.00 41 1012.9
20260901014535 94 113 2.0 6.0 0.00 0.00 0.00 38 1012.8
20260901013535 94 90 1.0 3.0 0.00 0.00 0.00 38 1012.8
20260901012535 95 90 2.0 6.0 0.00 0.00 0.00 37 1012.7
20260901011536 95 90 2.0 7.0 0.00 0.00 0.00 37 1012.7
20260901010535 96 90 2.0 7.0 0.00 0.00 0.00 36 1012.6
20260901005535 96 90 3.0 8.0 0.00 0.00 0.00 36 1012.5
20260901004535 97 90 4.0 11.0 0.00 0.00 0.00 35 1012.5
20260901003535 97 68 2.0 7.0 0.00 0.00 0.00 35 1012.4
20260901002535 98 68 3.0 7.0 0.00 0.00 0.00 35 1012.5
20260901001536 98 90 4.0 10.0 0.00 0.00 0.00 35 1012.5
20260901000555 98 68 5.0 12.0 0.00 0.00 0.00 34 1012.4
20260831235555 98 68 3.0 8.0 0.00 0.00 0.00 35 1012.5
20260831234535 99 68 2.0 10.0 0.00 0.00 0.00 34 1012.7
20260831233535 99 68 3.0 7.0 0.00 0.00 0.00 34 1012.6
20260831232535 99 90 4.0 9.0 0.00 0.00 0.00 32 1012.5
20260831231535 100 90 3.0 8.0 0.00 0.00 0.00 33 1012.5
20260831230535 100 113 3.0 7.0 0.00 0.00 0.00 32 1012.5
20260831225535 100 113 5.0 10.0 0.00 0.00 0.00 33 1012.7